Content
SEND FEEDBACK

Daily
Averages
Monthly
Summary
Christmas Island

THE SETTLEMENT, CHRISTMAS ISLAND


Home > Asia > Christmas Island
Elevation: 856 feet     Latitude: 10 27S     Longitude: 105 41E

WEATHER
 
SELECT A DAY
Number of Records: 226,449;   Date Range: 7/1/96 - 8/31/14
 
SHARE

PRINT THIS DATA

[ ← Previous Day ]
WEATHER ALMANAC - JANUARY 31, 2013
[ Next Day → ]
[ °C ]   °F
Weather ElementAverageHighLow
Temperature79.4 °F84.2 °F (11:00 am)75 °F (1:00 am)
Dewpoint74.6 °F77 °F (1:00 pm)73.4 °F (12:00 am)
Humidity84.1 %100 % (2:00 am)66 % (12:00 pm)
Barometer29.93 in29.98 in (12:00 am)29.84 in (6:00 pm)
Wind Speed5 mph9.2 mph (2:00 pm)
Weather ElementAverage
Visibility6.2 mi
Wind DirectionSSW (191.3 °)

Weather ElementTotal
Precipitation---
Cooling Degree Days14.6 (Base 65)
Growing Degree Days29.6 (Base 50)
Averaged from 41 records on January 31, 2013
WEATHER CONDITIONS BREAKOUT
WIND DIRECTION BREAKOUT
WEATHER BY HOUR - JANUARY 31, 2013
[ °C ]   °F
Local TimeTemperatureDewpointHumidityBarometerVisibilityWind DirectionWind SpeedGust SpeedPrecipitationEventsConditions
12:00 AM75.2 °F73.4 °F94 %29.98 in6.2 miWest (270°)4.6 mph
1:00 AM75.0 °F74.0 °F96 %29.92 inWest (270°)4.6 mph
1:00 AM75.2 °F73.4 °F94 %29.95 in6.2 miWest (270°)4.6 mph
2:00 AM75.2 °F75.2 °F100 %29.95 in6.2 miWest (260°)4.6 mph
3:00 AM75.2 °F73.4 °F94 %29.95 in6.2 miWest (260°)4.6 mph
3:00 AM76.0 °F74.0 °F92 %29.91 inWest (260°)4.6 mph
4:00 AM75.0 °F74.0 °F94 %29.90 inWSW (240°)1.2 mph
4:00 AM75.2 °F73.4 °F94 %29.95 in6.2 miWSW (240°)1.2 mph
5:00 AM75.2 °F73.4 °F94 %29.95 in6.2 miWSW (240°)3.5 mphScattered Clouds
6:00 AM75.2 °F75.2 °F100 %29.95 in6.2 miSW (230°)3.5 mph
6:00 AM76.0 °F74.0 °F94 %29.91 inSW (230°)3.5 mph
7:00 AM77.0 °F75.0 °F92 %29.92 inCalm
7:00 AM77.0 °F75.2 °F94 %29.95 in6.2 miCalm
8:00 AM80.6 °F75.2 °F84 %29.98 in6.2 miSouth (190°)5.8 mph
9:00 AM82.4 °F73.4 °F74 %29.98 in6.2 miSouth (170°)6.9 mph
9:00 AM82.0 °F74.0 °F71 %29.93 inSouth (170°)6.9 mph
10:00 AM83.0 °F74.0 °F67 %29.93 inSSE (160°)6.9 mph
10:00 AM82.4 °F73.4 °F74 %29.98 in6.2 miSSE (160°)6.9 mph
11:00 AM84.2 °F75.2 °F74 %29.95 in6.2 miSE (140°)8.1 mphScattered Clouds
12:00 PM84.2 °F75.2 °F74 %29.95 in6.2 miSE (140°)8.1 mphScattered Clouds
12:00 PM84.0 °F74.0 °F66 %29.91 inSE (140°)8.1 mph
1:00 PM84.0 °F76.0 °F72 %29.89 inSSE (160°)6.9 mph
1:00 PM84.2 °F77.0 °F79 %29.92 in6.2 miSSE (160°)6.9 mphScattered Clouds
2:00 PM84.2 °F77.0 °F79 %29.92 in6.2 miSE (140°)9.2 mphScattered Clouds
3:00 PM82.4 °F75.2 °F79 %29.89 in6.2 miSSE (150°)8.1 mphMostly Cloudy
3:00 PM83.0 °F76.0 °F74 %29.86 inSSE (150°)8.1 mph
4:00 PM83.0 °F76.0 °F74 %29.85 inSSE (150°)6.9 mph
4:00 PM84.2 °F75.2 °F74 %29.89 in6.2 miSSE (150°)6.9 mphScattered Clouds
5:00 PM82.4 °F75.2 °F79 %29.86 in6.2 miSouth (170°)5.8 mph
6:00 PM80.6 °F75.2 °F84 %29.89 in6.2 miSouth (190°)4.6 mph
6:00 PM80.0 °F74.0 °F78 %29.84 inSouth (190°)4.6 mph
7:00 PM78.0 °F75.0 °F87 %29.87 inSSW (200°)3.5 mph
7:00 PM78.8 °F75.2 °F89 %29.89 in6.2 miSSW (200°)3.5 mphScattered Clouds
8:00 PM78.8 °F73.4 °F83 %29.95 in6.2 miSSW (210°)3.5 mphScattered Clouds
9:00 PM78.8 °F75.2 °F89 %29.95 in6.2 miSSW (200°)4.6 mphMostly Cloudy
9:00 PM78.0 °F75.0 °F86 %29.92 inSSW (200°)4.6 mph
9:56 PM78.8 °F73.4 °F83 %29.98 in6.2 miSSW (200°)4.6 mphMostly Cloudy
10:00 PM78.0 °F74.0 °F84 %29.93 inSouth (190°)3.5 mph
10:00 PM78.8 °F73.4 °F83 %29.98 in6.2 miSouth (190°)3.5 mphMostly Cloudy
10:06 PM78.8 °F75.2 °F89 %29.98 in6.2 miSouth (190°)3.5 mphMostly Cloudy
11:00 PM77.0 °F73.4 °F89 %29.98 in6.2 miSW (220°)3.5 mphScattered Clouds
Hourly data recorded from YPXM, located miles away from The Settlement, Christmas Island







STORIES FROM OUR PARTNERS